Regional Weather Roundup
Issued by NWS Northern Indiana

Home | Current Version | Previous Version | Graphics & Text | Print | Product List | Glossary On
Versions: 1 2 3 4 5 6 7 8 9 10 11 12 13 14 15 16 17 18 19 20 21 22 23 24 25 26 27 28 29 30 31 32 33 34 35 36 37 38 39 40 41 42 43 44 45 46 47 48 49 50
000
ASUS43 KIWX 201600
RWRIWX

KIWX WEATHER ROUNDUP
NATIONAL WEATHER SERVICE NORTHERN INDIANA
1200 PM EDT SAT SEP 20 2014

NOTE: "FAIR" INDICATES FEW OR NO CLOUDS BELOW 12,000 FEET WITH NO
SIGNIFICANT WEATHER AND/OR OBSTRUCTIONS TO VISIBILITY.

* THESE STATIONS ARE NOT UNDER NWS QUALITY CONTROL. THEY ALSO MAY NOT
  REPORT WEATHER SUCH AS PRECIPITATION OR FOG.

INZ001>027-201700-
NORTHERN INDIANA

CITY           SKY/WX    TMP DP  RH WIND       PRES   REMARKS
GARY*          PTSUNNY   73  63  68 S17       29.89F
VALPARAISO     PTSUNNY   74  61  63 SW21G28   29.91F
KNOX*          PTSUNNY   74  60  63 SW15      29.92F
SOUTH BEND     PTSUNNY   74  61  63 SW18G25   29.91F
GOSHEN         CLOUDY    73  60  63 SW20G31   29.94F
WARSAW*        CLOUDY    70  61  73 S7        29.96F
ANGOLA*        SUNNY     73  66  78 SW15      29.96S
FORT WAYNE     PTSUNNY   74  59  59 SW16G29   30.00F
PERU/GRISSOM   CLOUDY    73  67  81 SW16      30.00S

$$
INZ028>050-201700-
CENTRAL INDIANA

CITY           SKY/WX    TMP DP  RH WIND       PRES   REMARKS
LAFAYETTE      CLOUDY    71  60  68 SW8       30.00F
KOKOMO*        CLOUDY    73  63  68 SW18      30.01F
MUNCIE*        PTSUNNY   74  33  22 SW12G21   30.03F
INDIANAPOLIS   CLOUDY    74  61  63 SW12      30.05F

$$
MIZ043>046-050>051-056>058-064>065-071>073-077>080-201700-
SOUTHWEST LOWER MICHIGAN

CITY           SKY/WX    TMP DP  RH WIND       PRES   REMARKS
BATTLE CREEK   PTSUNNY   73  59  61 SW24G31   29.89F
BENTON HARBOR  MOSUNNY   73  62  68 S16G25    29.86F
COLDWATER*     PTSUNNY   74  60  62 SW16G23   29.93S
HILLSDALE*     PTSUNNY   72  59  63 SW13G18   29.95F
HOLLAND        PTSUNNY   72  63  73 SW17G26   29.87R
GRAND RAPIDS   PTSUNNY   72  61  68 W17G23    29.88R
KALAMAZOO      PTSUNNY   74  60  61 SW21G26   29.89F
STURGIS*       PTSUNNY   72  61  68 SW18G25   29.92F
THREE RIVERS*  FAIR      73  61  67 SW15G28   29.91F

$$
OHZ001>008-015>018-024>025-201700-
NORTHWEST OHIO

CITY           SKY/WX    TMP DP  RH WIND       PRES   REMARKS
DEFIANCE       PTSUNNY   74  58  57 SW15G23   29.98F
FINDLAY        CLOUDY    75  60  59 SW13      30.00F
TOLEDO EXPRESS PTSUNNY   73  59  61 SW10      29.98F
TOLEDO METCALF PTSUNNY   74  58  57 SW15G26   29.99F
LIMA           PTSUNNY   75  61  61 SW10      30.03F

$$
AND FOR LAKE MICHIGAN COASTAL AND OPEN LAKE BUOY OBSERVATIONS

STATION/POSITION TEMP    WIND        PRES    VSBY  WAVE
                 AIR SEA DIR/SP/G                  HT/PER
                 (F)     (DEG/KT/KT) (MB)    (MI)  (FT/S)
CALUMET HARBOR    70     200/ 16/ 21 1010.0F
MICHIGAN CITY     69     170/ 19/ 28   N/A
SAINT JOSEPH      71     180/ 18     1011.5F
SOUTH LAKE BUOY   65 63  220/ 21/ 25 1010.1R         5/ 6
4 MI NW BRIDGMAN  68 65  180/ 17/ 21   N/A           5/ 5
MICHIGAN CITY     69 65  200/ 14/ 21   N/A           3/ 4
SAINT JOSEPH CG                      1012.1      6   4

$$
&&



USA.gov is the U.S. government's official web portal to all federal, state and local government web resources and services.